Tracking 29511 objects as of 17-Sep-2024
HD Live streaming from Space Station
objects crossing your sky now

THORAD AGENA D DEB

Track THORAD AGENA D DEB now!
10-day predictions


NORAD ID: 42537
Int'l Code: 1970-025ST
Perigee: 959.8 km
Apogee: 971.4 km
Inclination: 100.1 °
Period: 104.2 minutes
Semi major axis: 7336 km
RCS: Unknown
Launch date: April 8, 1970
Source: United States (US)
Launch site: AIR FORCE WESTERN TEST RANGE (AFWTR)

Note: This is SATELLITE DEBRIS
Your satellite tracking list
Your tracking list is empty




NASA's NSSDC Master Catalog

Two Line Element Set (TLE):
1 42537U 70025ST  24259.29147309  .00002644  00000-0  25258-2 0  9992
2 42537 100.0703 107.4076 0007938  86.2563 273.9495 13.81533984964425
Source of the keplerian elements: AFSPC